Weather History for Kendall, FL

Change the Weather History Date:

Wednesday, November 20, 2013

  Actual Average Record
Temperature  
Mean Temperature 76 °F -  
Max Temperature 84 °F 82 °F 86 °F (1993)
Min Temperature 68 °F 64 °F 48 °F (2006)
Cooling Degree Days 11    
Growing Degree Days 26 (Base 50)    
Moisture  
Dew Point 71 °F    
Average Humidity 89    
Maximum Humidity 100    
Minimum Humidity 63    
Precipitation  
Precipitation 0.00 in - - ()
Sea Level Pressure  
Sea Level Pressure 29.98 in    
Wind  
Wind Speed 1 mph (SE)    
Max Wind Speed 7 mph    
Max Gust Speed -    
Visibility 6 miles    
Events Fog    
Averages and records for this station are not official NWS values.
T = Trace of Precipitation, MM = Missing Value Source: NWS Daily Summary

Daily Weather History Graph

Daily Weather History Graph

Search for Another Location

Airport:

Trip Planner

Search our weather history database for the weather conditions in past years. The results will help you decide how hot, cold, wet, or windy it might be!

Date:

Astronomy

Nov. 20, 2013 Rise Set
Actual Time 6:43 AM EST 5:31 PM EST
Civil Twilight 6:18 AM EST 5:55 PM EST
Nautical Twilight 5:50 AM EST 6:23 PM EST
Astronomical Twilight 5:23 AM EST 6:51 PM EST
Moon 8:12 PM EST (11/20) 9:06 AM EST (11/20)
Length of Visible Light 11h 37m
Length of Day
10h 48m
Waning Gibbous, 91% of the Moon is Illuminated
Nov 20
Waning Gibbous
Nov 25
Last Quarter
Dec 2
New
Dec 9
First Quarter
Dec 17
Full

Hourly Weather History & Observations

Time (EST) Temp. Heat Index Dew Point Humidity Pressure Visibility Wind Dir Wind Speed Gust Speed Precip Events Conditions
12:13 AM 71.6 °F - 71.6 °F 100% 29.95 in 1.8 mi Calm Calm - N/A   Clear
12:35 AM 71.6 °F - 71.6 °F 100% 29.94 in 0.5 mi Calm Calm - N/A Fog Fog
12:53 AM 72.0 °F - 71.1 °F 97% 29.94 in 2.5 mi Calm Calm - N/A   Clear
1:05 AM 71.6 °F - 71.6 °F 100% 29.94 in 3.0 mi Calm Calm - N/A   Clear
1:10 AM 69.8 °F - 69.8 °F 100% 29.94 in 1.5 mi Calm Calm - N/A   Clear
1:17 AM 71.6 °F - 71.6 °F 100% 29.94 in 0.5 mi Calm Calm - N/A Fog Fog
1:31 AM 71.6 °F - 71.6 °F 100% 29.93 in 0.2 mi Calm Calm - N/A Fog Fog
1:48 AM 71.6 °F - 71.6 °F 100% 29.93 in 0.5 mi Calm Calm - N/A Fog Fog
1:53 AM 71.1 °F - 71.1 °F 100% 29.93 in 0.5 mi Calm Calm - N/A Fog Fog
2:08 AM 69.8 °F - 69.8 °F 100% 29.93 in 0.2 mi Calm Calm - N/A Fog Fog
2:25 AM 68.0 °F - 68.0 °F 100% 29.93 in 0.5 mi Calm Calm - N/A Fog Fog
2:43 AM 71.6 °F - 71.6 °F 100% 29.94 in 1.0 mi NNE 3.5 mph - N/A   Clear
2:49 AM 71.6 °F - 71.6 °F 100% 29.94 in 3.0 mi North 4.6 mph - N/A   Clear
2:53 AM 71.1 °F - 71.1 °F 100% 29.94 in 6.0 mi NNE 4.6 mph - N/A   Clear
3:53 AM 72.0 °F - 72.0 °F 100% 29.94 in 9.0 mi Calm Calm - N/A   Partly Cloudy
4:35 AM 69.8 °F - 69.8 °F 100% 29.94 in 1.8 mi Calm Calm - N/A   Clear
4:53 AM 70.0 °F - 70.0 °F 100% 29.95 in 0.8 mi Calm Calm - N/A   Clear
5:05 AM 69.8 °F - 69.8 °F 100% 29.95 in 2.0 mi North 3.5 mph - N/A   Clear
5:21 AM 71.6 °F - 69.8 °F 94% 29.95 in 1.0 mi Calm Calm - N/A   Mist
5:28 AM 71.6 °F - 71.6 °F 100% 29.96 in 0.5 mi Calm Calm - N/A Fog Fog
5:53 AM 70.0 °F - 70.0 °F 100% 29.97 in 1.2 mi Calm Calm - N/A   Scattered Clouds
6:05 AM 71.6 °F - 71.6 °F 100% 29.97 in 2.5 mi Calm Calm - N/A   Partly Cloudy
6:22 AM 69.8 °F - 69.8 °F 100% 29.97 in 0.8 mi Calm Calm - N/A   Clear
6:40 AM 69.8 °F - 69.8 °F 100% 29.98 in 0.2 mi Calm Calm - N/A Fog Fog
6:53 AM 69.1 °F - 69.1 °F 100% 29.98 in 0.2 mi Calm Calm - N/A Fog Fog
7:23 AM 69.8 °F - 69.8 °F 100% 29.99 in 5.0 mi Calm Calm - N/A   Clear
7:53 AM 72.0 °F - 72.0 °F 100% 30.00 in 10.0 mi Variable 3.5 mph - N/A   Partly Cloudy
8:53 AM 78.1 °F - 73.9 °F 87% 30.01 in 10.0 mi Calm Calm - N/A   Clear
9:53 AM 81.0 °F 85.8 °F 73.0 °F 77% 30.02 in 10.0 mi Calm Calm - N/A   Scattered Clouds
10:01 AM 80.6 °F 85.4 °F 73.4 °F 79% 30.02 in 0.0 mi SSW 4.6 mph - N/A   Mostly Cloudy
10:09 AM 80.6 °F 85.4 °F 73.4 °F 79% 30.03 in 10.0 mi ESE 3.5 mph - N/A   Mostly Cloudy
10:53 AM 81.0 °F 85.2 °F 72.0 °F 74% 30.03 in 10.0 mi SW 3.5 mph - N/A   Mostly Cloudy
11:00 AM 80.6 °F 84.6 °F 71.6 °F 74% 30.03 in 10.0 mi SSW 3.5 mph - N/A   Mostly Cloudy
11:08 AM 80.6 °F 84.6 °F 71.6 °F 74% 30.03 in 10.0 mi Calm Calm - N/A   Mostly Cloudy
11:49 AM 82.4 °F 87.2 °F 71.6 °F 70% 30.02 in 10.0 mi SSE 6.9 mph - 0.00 in   Overcast
11:53 AM 82.0 °F 85.9 °F 70.0 °F 67% 30.01 in 10.0 mi South 3.5 mph - 0.00 in   Overcast
12:26 PM 82.4 °F 87.2 °F 71.6 °F 70% 30.00 in 10.0 mi SSE 4.6 mph - N/A   Overcast
12:53 PM 81.0 °F 85.8 °F 73.0 °F 77% 29.99 in 10.0 mi NW 5.8 mph - N/A   Overcast
1:29 PM 80.6 °F 84.6 °F 71.6 °F 74% 29.97 in 10.0 mi Calm Calm - N/A   Overcast
1:53 PM 82.0 °F 86.3 °F 71.1 °F 69% 29.96 in 10.0 mi Calm Calm - N/A   Overcast
2:53 PM 84.0 °F 88.4 °F 70.0 °F 63% 29.95 in 10.0 mi Variable 3.5 mph - N/A   Partly Cloudy
3:53 PM 84.0 °F 88.4 °F 70.0 °F 63% 29.96 in 10.0 mi SE 4.6 mph - N/A   Overcast
4:53 PM 80.1 °F 82.3 °F 66.9 °F 64% 29.98 in 10.0 mi SE 5.8 mph - N/A   Scattered Clouds
5:53 PM 79.0 °F - 69.1 °F 72% 30.00 in 10.0 mi SE 5.8 mph - N/A   Mostly Cloudy
6:53 PM 78.1 °F - 70.0 °F 76% 30.02 in 10.0 mi SE 3.5 mph - N/A   Overcast
7:53 PM 77.0 °F - 70.0 °F 79% 30.04 in 10.0 mi Calm Calm - 0.00 in   Mostly Cloudy
8:53 PM 77.0 °F - 70.0 °F 79% 30.06 in 10.0 mi Calm Calm - N/A   Mostly Cloudy
9:53 PM 73.9 °F - 72.0 °F 93% 30.07 in 10.0 mi Calm Calm - N/A   Mostly Cloudy
10:53 PM 75.0 °F - 72.0 °F 90% 30.06 in 10.0 mi Calm Calm - N/A   Clear
11:53 PM 73.0 °F - 72.0 °F 96% 30.06 in 10.0 mi Calm Calm - N/A   Overcast